Regional Weather Roundup
Issued by NWS Green Bay, WI

Home | Current Version | Previous Version | Graphics & Text | Print | Product List | Glossary Off
Versions: 1 2 3 4 5 6 7 8 9 10 11 12 13 14 15 16 17 18 19 20 21 22 23 24 25 26 27 28 29 30 31 32 33 34 35 36 37 38 39 40 41 42 43 44 45 46 47 48 49 50

000
ASUS43 KGRB 241211
RWRGRB

NORTH-CENTRAL AND NORTHEAST WISCONSIN REGIONAL WEATHER ROUNDUP
NATIONAL WEATHER SERVICE GREEN BAY WI
700 AM CDT SUN JUL 24 2016

WIZ005-009-010>012-018-019-241300-
NORTH CENTRAL WISCONSIN

CITY           SKY/WX    TMP DP  RH WIND       PRES   REMARKS
IRONWOOD       CLOUDY    68  68 100 W10       29.75R
MANITOWISH WTR CLOUDY    66  66 100 W6        29.79R
ARBOR VITAE    CLOUDY    69  68  95 SW9       29.79R
EAGLE RIVER    CLOUDY    67  67 100 SW3       29.75F
LAND O LAKES   CLOUDY    68  67  96 CALM      29.76F
RHINELANDER    MOSUNNY   69  67  93 S6        29.80S
PHILLIPS       SUNNY     67  67 100 S5        29.79R
ANTIGO         FOG       69  69 100 CALM      29.83F VSB 1/2
TOMAHAWK       PTSUNNY   68  67  95 CALM      29.81F FOG
MERRILL        FOG       70  70 100 CALM      29.83R VSB 1/2
$$

WIZ013-073-241300-
NORTHEAST WISCONSIN

CITY           SKY/WX    TMP DP  RH WIND       PRES   REMARKS
IRON MOUNTAIN  CLOUDY    70  68  93 CALM      29.83R FOG
MARINETTE      CLOUDY    72  71  97 SW5       29.84R
OCONTO         CLOUDY   N/A N/A N/A CALM      29.83R
$$

WIZ017-030-035>037-045-241300-
CENTRAL WISCONSIN

CITY           SKY/WX    TMP DP  RH WIND       PRES   REMARKS
MEDFORD        FOG       69  69 100 CALM      29.81R VSB 1/4
WAUSAU         FOG       70  70 100 SE7       29.79F VSB 1
MOSINEE        FOG       70  70 100 S5        29.82F VSB 1/4
MARSHFIELD     FOG       72  70  93 S6        29.80F VSB 1/4
WISC RAPIDS    CLOUDY    74  71  91 S5        29.81F FOG
STEVENS POINT  FOG       69  69 100 CALM      29.82F VSB 3/4
WAUPACA        CLOUDY    73  73 100 CALM      29.82S
SHAWANO        CLOUDY    73  71  91 CALM      29.83S
CLINTONVILLE   CLOUDY    72  70  94 S5        29.82F
WAUTOMA        CLOUDY    72  71  97 SE5       29.82F
$$

WIZ038-039-048-051-241300-
FOX VALLEY

CITY           SKY/WX    TMP DP  RH WIND       PRES   REMARKS
NWS GREEN BAY  CLOUDY    72  72 100 S6        29.84R
APPLETON       CLOUDY    72  72 100 S8        29.83R
OSHKOSH        CLOUDY    72  69  90 S6        29.83S
FOND DU LAC    CLOUDY    74  71  91 S10       29.84S
$$

WIZ022-050-052-241300-
EAST CENTRAL WISCONSIN

CITY           SKY/WX    TMP DP  RH WIND       PRES   REMARKS
EPHRAIM        CLOUDY    69  68  95 S3        29.83S
WASHINGTON ISL NOT AVBL
STURGEON BAY   CLOUDY    71  69  93 S12       29.84R
MANITOWOC      CLOUDY    71  68  90 S10       29.86R
SHEBOYGAN      CLOUDY    71  68  90 S8        29.86S
$$

LMZ563-521-522-541>543-241300-
LAKESHORE

STATION/POSITION TIME  TEMP    WIND        PRES    VSBY  WAVE
                       AIR SEA DIR/SP/G                  HT/PER
                 (UTC) (F)     (DEG/KT/KT) (MB)    (MI)  (FT/S)
SHEBOYGAN LKSHOR 1200   63     180/ 17/ 17 1011.0F
KEWAUNEE LKSHORE 1100   66     180/ 10/ 12 1009.8F
NORTHPORT PIER   1100   69     150/  6/ 11 1009.8F
N MID LAKE BUOY  1150   70 69  200/ 14/ 17 1010.0R         2/ 4
S GREEN BAY BUOY 1100   74 75  190/ 12/ 14   N/A
CHAMBERS ISLAND  1100   71     160/  5/  8 1009.8S
MENOMINEE LKSHOR 1100   73     190/  6/  9 1008.8F
$$



USA.gov is the U.S. government's official web portal to all federal, state and local government web resources and services.